Overview Statistics Trail Chart Weather Telemetry Raw packets
 

This is the latest recevied weather packets stored in our database for station/object 4S6DRJ-13. If no packets are shown the sender has not sent any weather packets the latest 10 day(s).

<< 294 295 296 297 298 299 300 >>
Time Temp. Humidity Pressure Rain* Wind** Luminosity Snow
1788035067 27.78° C 84% 1009.6 hPa 0 mm 1.79 m/s, 227° 0 W/m² -
1788035006 27.78° C 84% 1009.7 hPa 0 mm 0.89 m/s, 141° 0 W/m² -
1788034945 27.78° C 84% 1009.5 hPa 0 mm 0.45 m/s, 236° 0 W/m² -
1788034884 27.78° C 84% 1009.8 hPa 0 mm 0.89 m/s, 235° 0 W/m² -
1788034823 27.78° C 84% 1009.7 hPa 0 mm 0.45 m/s, 181° 0 W/m² -
1788034761 27.78° C 84% 1009.7 hPa 0 mm 0.89 m/s, 266° 0 W/m² -
1788034701 27.78° C 84% 1009.6 hPa 0 mm 0.89 m/s, 244° 0 W/m² -
1788034640 27.78° C 84% 1009.9 hPa 0 mm 2.24 m/s, 204° 0 W/m² -
1788034579 27.78° C 84% 1009.5 hPa 0 mm 0 m/s 0 W/m² -
1788034518 27.78° C 84% 1009.8 hPa 0 mm 1.34 m/s, 261° 0 W/m² -
1788034457 27.78° C 84% 1009.5 hPa 0 mm 2.24 m/s, 225° 0 W/m² -
1788034396 27.78° C 84% 1009.7 hPa 0 mm 0.89 m/s, 206° 0 W/m² -
1788034335 27.78° C 84% 1009.6 hPa 0 mm 0.89 m/s, 188° 0 W/m² -
1788034274 27.78° C 85% 1009.7 hPa 0 mm 1.34 m/s, 209° 0 W/m² -
1788034213 27.78° C 85% 1009.6 hPa 0 mm 1.34 m/s, 249° 0 W/m² -
1788034152 27.78° C 85% 1009.7 hPa 0 mm 1.34 m/s, 235° 0 W/m² -
1788034091 27.78° C 85% 1009.6 hPa 0 mm 0.89 m/s, 240° 0 W/m² -
1788034030 27.78° C 85% 1009.6 hPa 0 mm 0.89 m/s, 209° 0 W/m² -
1788033969 27.78° C 85% 1009.6 hPa 0 mm 0.89 m/s, 226° 0 W/m² -
1788033908 27.78° C 85% 1009.6 hPa 0 mm 2.68 m/s, 211° 0 W/m² -
1788033847 27.78° C 85% 1009.6 hPa 0 mm 0.45 m/s, 239° 0 W/m² -
1788033786 27.78° C 85% 1009.6 hPa 0 mm 1.79 m/s, 238° 0 W/m² -
1788033725 27.78° C 85% 1009.6 hPa 0 mm 0.89 m/s, 300° 0 W/m² -
1788033664 27.78° C 85% 1009.7 hPa 0 mm 0.89 m/s, 215° 0 W/m² -
1788033603 27.78° C 85% 1009.6 hPa 0 mm 2.24 m/s, 225° 0 W/m² -

* Rain latest hour (hover to see other rain measurements)
** Current wind speed in m/s (hover to see current wind gust speed)